GW3011 Weather Reports


time (UTC)temp
F
wind
direction
speed
knots
gust
knots
rain 1hr
in
rain 24hr
in
rain mn
in
humidity
%
barometer
mb
20260506165241 67 295 3.5 6.1 0.00 0.00 0.00 79 1008.1
20260506164738 67 50 3.5 6.1 0.00 0.00 0.00 77 1008.4
20260506164235 67 239 4.3 7.0 0.00 0.00 0.00 77 1008.3
20260506163732 67 189 1.7 3.5 0.00 0.00 0.00 77 1008.4
20260506163226 67 328 2.6 3.5 0.00 0.00 0.00 76 1008.3
20260506162723 67 268 3.5 5.2 0.00 0.00 0.00 75 1008.2
20260506162221 69 169 3.5 3.5 0.00 0.00 0.00 72 1008.5
20260506161718 69 161 1.7 2.6 0.00 0.00 0.00 68 1008.4
20260506161215 70 214 5.2 7.0 0.00 0.00 0.00 64 1008.6
20260506160713 71 125 3.5 7.0 0.00 0.00 0.00 63 1008.8
20260506160209 71 164 3.5 5.2 0.00 0.00 0.00 63 1008.5
20260506155707 71 183 4.3 7.0 0.00 0.00 0.00 62 1008.7
20260506155204 71 166 2.6 5.2 0.00 0.00 0.00 62 1008.6
20260506153312 71 140 12.2 13.9 0.00 0.00 0.00 63 1008.6
20260506152808 71 205 7.8 12.2 0.00 0.00 0.00 63 1008.3
20260506152306 71 306 4.3 6.1 0.00 0.00 0.00 63 1008.6
20260506151805 71 130 7.0 8.7 0.00 0.00 0.00 63 1008.5
20260506151301 71 183 7.8 9.6 0.00 0.00 0.00 63 1008.8
20260506150757 69 138 4.3 7.8 0.00 0.00 0.00 66 1008.8
20260506150303 68 306 0.0 0.0 0.00 0.00 0.00 69 1008.9
20260506145752 67 304 2.6 2.6 0.00 0.00 0.00 69 1008.8
20260506145248 68 89 2.6 2.6 0.00 0.00 0.00 68 1008.8
20260506144746 68 55 2.6 2.6 0.00 0.00 0.00 69 1008.9
20260506144242 69 297 1.7 1.7 0.00 0.00 0.00 67 1009.1
20260506143740 70 280 0.0 0.0 0.00 0.00 0.00 66 1008.8
20260506143237 69 174 1.7 2.6 0.00 0.00 0.00 68 1008.7
20260506142736 68 136 3.5 3.5 0.00 0.00 0.00 69 1008.9
20260506142233 68 227 3.5 3.5 0.00 0.00 0.00 69 1008.7
20260506141731 68 216 2.6 3.5 0.00 0.00 0.00 69 1008.5
20260506141229 68 150 4.3 6.1 0.00 0.00 0.00 69 1008.7
20260506140727 68 169 4.3 9.6 0.00 0.00 0.00 69 1008.7
20260506140223 68 126 6.1 8.7 0.00 0.00 0.00 69 1008.8
20260506135720 68 143 1.7 5.2 0.00 0.00 0.00 69 1009.0
20260506135216 68 65 1.7 3.5 0.00 0.00 0.00 69 1009.1
20260506134713 68 204 1.7 1.7 0.00 0.00 0.00 70 1008.9
20260506134209 68 175 5.2 7.0 0.00 0.00 0.00 70 1008.9
20260506133707 68 190 5.2 6.1 0.00 0.00 0.00 70 1008.9
20260506133203 68 278 2.6 6.1 0.00 0.00 0.00 70 1009.2
20260506132701 67 189 7.0 9.6 0.00 0.00 0.00 72 1009.1
20260506132157 67 170 3.5 5.2 0.00 0.00 0.00 72 1009.4
20260506131655 67 169 4.3 6.1 0.00 0.00 0.00 72 1008.9
20260506131151 67 121 8.7 9.6 0.00 0.00 0.00 72 1009.1
20260506130648 67 338 1.7 1.7 0.00 0.00 0.00 71 1009.2
20260506130145 67 249 2.6 5.2 0.00 0.00 0.00 72 1008.9
20260506125644 67 150 2.6 2.6 0.00 0.00 0.00 72 1008.9
20260506125141 67 128 5.2 6.1 0.00 0.00 0.00 72 1008.9
20260506124639 66 223 3.5 6.1 0.00 0.00 0.00 73 1008.8
20260506124136 66 133 1.7 2.6 0.00 0.00 0.00 74 1009.2
20260506123634 66 308 1.7 2.6 0.00 0.00 0.00 74 1009.1
20260506123132 65 79 3.5 7.0 0.00 0.00 0.00 75 1009.1
20260506122629 65 281 0.9 1.7 0.00 0.00 0.00 75 1009.1
20260506122126 65 163 5.2 7.0 0.00 0.00 0.00 75 1009.1
20260506121624 66 304 2.6 3.5 0.00 0.00 0.00 74 1009.3
20260506121120 66 229 3.5 6.1 0.00 0.00 0.00 74 1009.4
20260506120618 66 139 4.3 5.2 0.00 0.00 0.00 74 1009.6
20260506120115 66 204 5.2 6.1 0.00 0.00 0.00 75 1009.4
20260506115614 66 174 3.5 6.1 0.00 0.00 0.00 74 1009.4
20260506115112 65 127 2.6 7.0 0.00 0.00 0.00 75 1009.4
20260506114608 65 173 4.3 6.1 0.00 0.00 0.00 76 1009.3
20260506114107 65 173 3.5 3.5 0.00 0.00 0.00 76 1009.6
20260506113604 64 283 3.5 5.2 0.00 0.00 0.00 77 1009.5
20260506113101 64 139 4.3 5.2 0.00 0.00 0.00 78 1009.3
20260506112557 64 205 3.5 6.1 0.00 0.00 0.00 78 1009.5
20260506112055 64 280 3.5 6.1 0.00 0.00 0.00 78 1009.5
20260506111553 64 152 8.7 14.8 0.00 0.00 0.00 79 1009.1
20260506111050 64 27 3.5 7.8 0.00 0.00 0.00 78 1009.1
20260506110548 63 251 6.1 7.8 0.00 0.00 0.00 80 1009.0
20260506110045 63 23 3.5 6.1 0.00 0.00 0.00 81 1009.2
20260506105541 62 344 3.5 6.1 0.00 0.00 0.00 81 1009.1
20260506105038 62 110 4.3 7.8 0.00 0.00 0.00 81 1009.1
20260506104536 63 218 2.6 5.2 0.00 0.00 0.00 81 1009.2
20260506104034 63 357 3.5 6.1 0.00 0.00 0.00 81 1009.1
20260506103531 62 261 2.6 5.2 0.00 0.00 0.00 81 1009.2
20260506103027 62 148 5.2 7.0 0.00 0.00 0.00 82 1009.0
20260506102526 62 300 1.7 2.6 0.00 0.00 0.00 82 1009.1
20260506102023 62 147 1.7 3.5 0.00 0.00 0.00 82 1009.1
20260506101519 62 163 5.2 7.0 0.00 0.00 0.00 82 1009.0
20260506101016 62 212 0.9 1.7 0.00 0.00 0.00 82 1008.8
20260506100515 62 278 1.7 1.7 0.00 0.00 0.00 82 1008.9
20260506100013 62 148 5.2 6.1 0.00 0.00 0.00 82 1009.0
20260506095511 62 149 4.3 6.1 0.00 0.00 0.00 82 1008.9
20260506095007 62 302 2.6 3.5 0.00 0.00 0.00 82 1009.0
20260506094505 62 178 5.2 7.0 0.00 0.00 0.00 82 1009.1
20260506094003 62 108 7.8 12.2 0.00 0.00 0.00 82 1009.1
20260506093501 62 209 1.7 2.6 0.00 0.00 0.00 82 1008.9
20260506092958 62 156 5.2 7.0 0.00 0.00 0.00 82 1009.1
20260506092456 62 163 1.7 2.6 0.00 0.00 0.00 82 1009.0
20260506091952 62 176 6.1 7.8 0.00 0.00 0.00 82 1008.9
20260506091450 62 329 7.0 11.3 0.00 0.00 0.00 82 1008.8
20260506090947 62 133 2.6 3.5 0.00 0.00 0.00 82 1009.1
20260506090445 62 112 2.6 2.6 0.00 0.00 0.00 82 1009.2
20260506085941 62 141 5.2 8.7 0.00 0.00 0.00 82 1009.2
20260506085438 62 279 4.3 7.0 0.00 0.00 0.00 82 1009.1
20260506084934 62 284 0.9 1.7 0.00 0.00 0.00 82 1009.3
20260506084432 62 125 3.5 5.2 0.00 0.00 0.00 82 1009.4
20260506083927 62 300 1.7 1.7 0.00 0.00 0.00 82 1009.2
20260506083425 62 339 2.6 5.2 0.00 0.00 0.00 82 1009.3
20260506082922 62 178 1.7 1.7 0.00 0.00 0.00 82 1009.4
20260506082419 62 308 0.0 0.0 0.00 0.00 0.00 82 1009.2
20260506081915 63 292 0.9 1.7 0.00 0.00 0.00 81 1009.4
20260506081414 63 304 0.0 0.0 0.00 0.00 0.00 81 1009.4
20260506080910 63 180 2.6 3.5 0.00 0.00 0.00 81 1009.1
20260506080407 63 296 0.9 0.9 0.00 0.00 0.00 81 1009.1
20260506073351 63 110 4.3 5.2 0.00 0.00 0.00 80 1009.5
20260506072847 63 2 1.7 2.6 0.00 0.00 0.00 80 1009.3
20260506072345 64 291 0.9 0.9 0.00 0.00 0.00 79 1009.3
20260506071843 64 256 3.5 3.5 0.00 0.00 0.00 79 1009.6
20260506071341 64 187 4.3 7.0 0.00 0.00 0.00 79 1009.5
20260506070837 64 170 3.5 7.8 0.00 0.00 0.00 78 1009.5
20260506070335 64 305 1.7 2.6 0.00 0.00 0.00 78 1009.4
20260506062312 61 70 1.7 3.5 0.00 0.00 0.00 78 1009.6
20260506061808 62 346 0.9 1.7 0.00 0.00 0.00 78 1009.5
20260506061304 62 348 0.0 0.0 0.00 0.00 0.00 77 1009.5
20260506060803 62 308 0.0 0.9 0.00 0.00 0.00 77 1009.5
20260506060301 62 356 1.7 2.6 0.00 0.00 0.00 77 1009.7
20260506051232 65 333 2.6 6.1 0.00 0.00 0.00 72 1009.9
20260506050730 65 346 3.5 6.1 0.00 0.00 0.00 72 1010.1
20260506050227 65 311 0.9 0.9 0.00 0.00 0.00 72 1010.1
20260506044718 66 296 0.9 0.9 0.00 0.00 0.00 71 1009.8
20260506044215 66 262 2.6 3.5 0.00 0.00 0.00 71 1009.9
20260506043712 66 29 0.9 0.9 0.00 0.00 0.00 71 1010.0
20260506043210 66 301 0.9 0.9 0.00 0.00 0.00 70 1010.0
20260506042709 66 243 3.5 5.2 0.00 0.00 0.00 70 1010.0
20260506042206 66 194 5.2 7.8 0.00 0.00 0.00 69 1010.0
20260506041705 67 71 3.5 7.0 0.00 0.00 0.00 69 1010.1
20260506041201 67 234 5.2 7.0 0.00 0.00 0.00 68 1009.9
20260506040659 67 155 2.6 5.2 0.00 0.00 0.00 67 1009.9
20260506040155 67 175 11.3 13.9 0.00 0.00 0.00 67 1010.1
20260506035652 67 162 7.0 11.3 0.00 0.00 0.00 67 1010.0
20260506035149 67 55 5.2 7.8 0.00 0.00 0.00 67 1009.9
20260506034646 68 226 2.6 5.2 0.00 0.00 0.00 66 1010.3
20260506034143 68 304 2.6 3.5 0.00 0.00 0.00 66 1010.0
20260506033640 68 84 2.6 7.8 0.00 0.00 0.00 66 1009.9
20260506033137 68 199 5.2 7.8 0.00 0.00 0.00 65 1009.9
20260506032634 68 181 2.6 6.1 0.00 0.00 0.00 65 1009.8
20260506032131 68 300 3.5 5.2 0.00 0.00 0.00 64 1009.6
20260506031628 68 152 7.0 9.6 0.00 0.00 0.00 64 1009.7
20260506031125 68 122 9.6 11.3 0.00 0.00 0.00 64 1009.7
20260506030624 68 143 6.1 9.6 0.00 0.00 0.00 65 1009.8
20260506030121 68 126 2.6 3.5 0.00 0.00 0.00 65 1009.6
20260506025617 67 166 6.1 8.7 0.00 0.00 0.00 64 1009.7
20260506025113 67 157 5.2 8.7 0.00 0.00 0.00 65 1009.8
20260506024611 67 79 5.2 12.2 0.00 0.00 0.00 65 1009.8
20260506024107 67 121 6.1 9.6 0.00 0.00 0.00 65 1009.7
20260506023603 67 87 5.2 7.0 0.00 0.00 0.00 65 1009.8
20260506023101 67 260 4.3 6.1 0.00 0.00 0.00 64 1009.9
20260506022558 67 252 2.6 3.5 0.00 0.00 0.00 65 1009.9
20260506022056 67 175 2.6 5.2 0.00 0.00 0.00 65 1009.8
20260506021553 67 164 3.5 3.5 0.00 0.00 0.00 64 1009.9
20260506021050 67 21 1.7 2.6 0.00 0.00 0.00 65 1009.8
20260506020547 67 10 5.2 7.8 0.00 0.00 0.00 65 1009.7
20260506020044 67 291 6.1 9.6 0.00 0.00 0.00 64 1009.7
20260506015542 68 288 3.5 5.2 0.00 0.00 0.00 64 1009.8
20260506015039 68 249 5.2 7.0 0.00 0.00 0.00 63 1009.8
20260506014536 68 158 2.6 5.2 0.00 0.00 0.00 63 1009.7
20260506014032 68 165 5.2 7.8 0.00 0.00 0.00 63 1010.0
20260506013531 68 282 3.5 7.0 0.00 0.00 0.00 63 1009.6
20260506013027 68 204 5.2 8.7 0.00 0.00 0.00 62 1009.9
20260506012523 67 150 6.1 8.7 0.00 0.00 0.00 63 1009.4
20260506012020 67 344 0.9 0.9 0.00 0.00 0.00 64 1009.7
20260506011517 66 69 3.5 5.2 0.00 0.00 0.00 64 1009.7
20260506011013 66 303 0.0 0.0 0.00 0.00 0.00 65 1009.5
20260506010508 66 349 0.9 1.7 0.00 0.00 0.00 65 1009.4
20260506010003 66 40 1.7 6.1 0.00 0.00 0.00 65 1009.2
20260506005501 66 13 3.5 3.5 0.00 0.00 0.00 64 1009.3
20260506004956 66 280 2.6 2.6 0.00 0.00 0.00 64 1009.1
20260506004454 67 63 3.5 6.1 0.00 0.00 0.00 63 1009.2
20260506003950 67 84 1.7 3.5 0.00 0.00 0.00 63 1009.1
20260506003446 67 308 0.0 0.0 0.00 0.00 0.00 63 1009.0
20260506002943 67 316 0.9 2.6 0.00 0.00 0.00 64 1009.0
20260506002439 67 58 2.6 5.2 0.00 0.00 0.00 63 1009.0
20260506001934 67 301 0.9 0.9 0.00 0.00 0.00 64 1008.8
20260506001432 67 305 0.0 0.9 0.00 0.00 0.00 63 1008.8
20260506000929 67 6 3.5 5.2 0.00 0.00 0.00 63 1008.8
20260506000427 68 80 2.6 3.5 0.00 0.00 0.00 63 1008.8
20260505235923 68 61 2.6 3.5 0.00 0.00 0.00 63 1008.8
20260505235421 69 36 1.7 1.7 0.00 0.00 0.00 61 1008.7
20260505234918 69 312 1.7 1.7 0.00 0.00 0.00 59 1008.7
20260505234415 70 53 1.7 3.5 0.00 0.00 0.00 59 1008.4
20260505233912 70 301 3.5 5.2 0.00 0.00 0.00 59 1008.3
20260505233410 69 332 1.7 3.5 0.00 0.00 0.00 60 1008.3
20260505232907 69 356 1.7 1.7 0.00 0.00 0.00 61 1008.0
20260505232405 69 17 3.5 3.5 0.00 0.00 0.00 61 1008.1
20260505231901 69 37 2.6 3.5 0.00 0.00 0.00 60 1007.9
20260505231359 69 68 1.7 2.6 0.00 0.00 0.00 61 1008.0
20260505230857 69 123 3.5 3.5 0.00 0.00 0.00 61 1007.9
20260505230354 69 42 3.5 6.1 0.00 0.00 0.00 62 1007.8
20260505225851 69 32 5.2 6.1 0.00 0.00 0.00 62 1008.0
20260505225348 69 11 4.3 5.2 0.00 0.00 0.00 61 1007.9
20260505224843 71 300 3.5 5.2 0.00 0.00 0.00 60 1007.8
20260505224341 71 43 2.6 3.5 0.00 0.00 0.00 59 1007.7
20260505223838 71 355 5.2 6.1 0.00 0.00 0.00 58 1007.7
20260505223335 72 24 7.8 9.6 0.00 0.00 0.00 57 1007.6
20260505222830 73 95 5.2 8.7 0.00 0.00 0.00 55 1007.6
20260505222327 73 286 3.5 6.1 0.00 0.00 0.00 52 1007.5
20260505221824 76 5 2.6 3.5 0.00 0.00 0.00 51 1007.4
20260505221321 77 22 1.7 2.6 0.00 0.00 0.00 45 1007.4
20260505220818 77 262 3.5 5.2 0.00 0.00 0.00 44 1007.3
20260505220315 77 47 4.3 6.1 0.00 0.00 0.00 47 1007.2
20260505215813 78 125 1.7 3.5 0.00 0.00 0.00 43 1007.2
20260505215310 78 121 4.3 7.0 0.00 0.00 0.00 44 1007.3
20260505214808 77 286 0.9 0.9 0.00 0.00 0.00 47 1007.2
20260505214306 79 330 2.6 5.2 0.00 0.00 0.00 46 1007.4
20260505213802 79 307 1.7 1.7 0.00 0.00 0.00 41 1007.2
20260505213300 82 228 0.9 1.7 0.00 0.00 0.00 38 1007.0
20260505212755 83 278 3.5 6.1 0.00 0.00 0.00 34 1007.1
20260505212253 83 99 7.8 9.6 0.00 0.00 0.00 34 1007.2
20260505211749 81 287 1.7 1.7 0.00 0.00 0.00 35 1007.0
20260505211247 79 210 4.3 7.0 0.00 0.00 0.00 40 1007.0
20260505210743 81 319 0.9 1.7 0.00 0.00 0.00 43 1007.2
20260505210240 83 167 1.7 5.2 0.00 0.00 0.00 34 1007.0
20260505205737 83 168 5.2 9.6 0.00 0.00 0.00 34 1006.8
20260505205236 78 219 2.6 6.1 0.00 0.00 0.00 38 1006.9
20260505204732 76 18 4.3 6.1 0.00 0.00 0.00 48 1006.7
20260505204230 78 168 2.6 3.5 0.00 0.00 0.00 44 1007.0
20260505203726 78 85 2.6 3.5 0.00 0.00 0.00 47 1006.9
20260505203224 82 51 2.6 3.5 0.00 0.00 0.00 40 1007.0
20260505202719 84 349 2.6 3.5 0.00 0.00 0.00 31 1007.0
20260505202216 80 277 5.2 11.3 0.00 0.00 0.00 36 1006.9
20260505201712 76 21 4.3 6.1 0.00 0.00 0.00 49 1007.1
20260505201210 76 44 5.2 7.0 0.00 0.00 0.00 51 1007.1
20260505200708 76 345 5.2 7.0 0.00 0.00 0.00 51 1007.1
20260505200205 77 299 0.9 0.9 0.00 0.00 0.00 50 1007.5
20260505195700 76 291 3.5 5.2 0.00 0.00 0.00 51 1007.2
20260505195158 76 32 4.3 6.1 0.00 0.00 0.00 50 1007.2
20260505194655 75 40 2.6 5.2 0.00 0.00 0.00 52 1007.4
20260505194151 75 54 1.7 5.2 0.00 0.00 0.00 52 1007.6
20260505193648 75 307 1.7 1.7 0.00 0.00 0.00 53 1007.3
20260505193145 76 290 1.7 1.7 0.00 0.00 0.00 53 1007.7
20260505192643 74 82 2.6 3.5 0.00 0.00 0.00 55 1007.8
20260505192141 75 32 2.6 3.5 0.00 0.00 0.00 54 1007.9
20260505191639 76 71 4.3 6.1 0.00 0.00 0.00 52 1008.0
20260505191137 77 73 5.2 6.1 0.00 0.00 0.00 52 1008.2
20260505190632 76 308 1.7 2.6 0.00 0.00 0.00 52 1008.2
20260505190127 75 29 2.6 3.5 0.00 0.00 0.00 54 1008.2
20260505185624 74 338 3.5 5.2 0.00 0.00 0.00 55 1008.4
20260505185121 74 333 5.2 7.0 0.00 0.00 0.00 55 1008.4
20260505184617 73 337 3.5 3.5 0.00 0.00 0.00 56 1008.5
20260505184114 72 358 4.3 5.2 0.00 0.00 0.00 57 1008.6
20260505183611 74 268 3.5 6.1 0.00 0.00 0.00 55 1008.8
20260505183109 75 57 5.2 6.1 0.00 0.00 0.00 54 1008.8
20260505182604 74 169 4.3 7.0 0.00 0.00 0.00 55 1009.0
20260505182102 74 301 0.9 0.9 0.00 0.00 0.00 53 1008.9
20260505181558 75 38 3.5 5.2 0.00 0.00 0.00 52 1008.9
20260505181056 75 61 6.1 7.0 0.00 0.00 0.00 53 1009.0
20260505180551 75 318 2.6 2.6 0.00 0.00 0.00 53 1008.9
20260505180049 77 105 5.2 6.1 0.00 0.00 0.00 50 1009.0
20260505175544 76 99 1.7 1.7 0.00 0.00 0.00 51 1008.8
20260505175041 75 321 2.6 5.2 0.00 0.00 0.00 53 1009.1
20260505174538 76 25 3.5 5.2 0.00 0.00 0.00 52 1008.7
20260505174034 76 328 3.5 6.1 0.00 0.00 0.00 51 1009.0
20260505173531 77 300 0.9 1.7 0.00 0.00 0.00 50 1009.1
20260505173028 77 324 3.5 5.2 0.00 0.00 0.00 50 1009.0
20260505172526 77 309 1.7 2.6 0.00 0.00 0.00 49 1009.2
20260505172021 77 47 4.3 7.0 0.00 0.00 0.00 48 1009.1
20260505171517 76 119 0.9 1.7 0.00 0.00 0.00 49 1009.1
20260505171014 76 328 1.7 2.6 0.00 0.00 0.00 49 1009.2
20260505170511 77 15 0.9 1.7 0.00 0.00 0.00 49 1009.2
20260505170007 77 36 1.7 3.5 0.00 0.00 0.00 47 1009.3